Temperature
12 12 13 13 13 13 13 14 14 14 14 14 14 14 14 14 14 14 14 14 14 14 14 14 14 14 14 14 14 14 15 15 15 15 15 15 15 15 15 15 15 15 15
13 13 13 13 13 13 13 13 13 13 14 14 14 14 14 14 14 14 14 14 14 14 14 14 14 14 14 14 14 14 14 14 14 14 15 15 14 15 15 15 15 14 14
13 13 13 13 13 13 13 13 13 13 13 13 13 13 13 13 14 14 14 14 14 14 14 14 14 14 14 14 14 14 14 14 14 14 14 14 14 14 14 14 14 14 14
12 12 12 12 13 13 13 13 13 13 13 13 13 13 13 13 13 13 13 13 14 13 13 13 13 13 13 13 13 13 14 14 14 14 14 14 14 14 14 14 14 14 14
12 12 12 12 12 12 13 13 13 13 13 13 13 13 13 13 13 13 13 13 13 13 13 13 13 13 13 13 13 13 13 13 13 14 14 14 14 14 14 14 14 14 14
12 12 12 12 12 12 12 12 12 13 13 13 12 13 13 13 13 13 13 13 13 13 13 13 13 13 13 13 13 13 13 13 13 13 13 13 13 13 13 13 13 13 13
12 12 12 12 12 12 12 12 12 12 12 12 12 12 12 12 13 12 12 12 13 13 12 12 12 12 12 12 12 13 13 13 13 13 13 13 13 13 13 13 13 13 13
11 11 11 11 11 12 12 12 11 11 12 12 12 12 12 12 12 12 12 12 12 12 12 12 12 12 12 12 12 12 12 13 13 13 13 13 13 13 13 13 13 13 13
11 11 11 11 11 11 11 11 11 11 11 11 11 11 12 12 12 11 12 12 12 12 12 12 12 12 12 12 12 12 12 12 12 12 12 12 12 12 12 13 13 12 12
11 11 11 11 11 11 11 11 11 11 11 11 11 11 11 11 11 11 11 11 11 11 11 11 11 11 11 11 11 11 12 12 12 12 12 12 12 12 12 12 12 12 12
10 10 10 10 10 10 10 10 10 10 11 11 11 11 11 11 11 11 11 11 11 11 11 11 11 11 11 11 11 11 11 11 11 11 12 12 11 11 11 12 12 12 12
10 10 10 10 10 10 10 10 10 10 10 10 10 10 10 10 10 10 10 10 10 10 10 10 10 10 10 11 11 11 11 11 11 11 11 11 11 11 11 11 11 11 12
9 9 9 9 9 9 9 9 10 10 10 10 10 10 10 10 10 10 10 10 10 10 10 10 10 10 10 10 10 10 10 10 10 10 10 11 11 11 10 11 11 11 11
8 8 8 8 9 9 9 9 9 9 9 9 9 9 9 9 9 9 9 9 9 10 10 10 10 9 9 9 9 9 10 10 10 10 10 10 10 10 10 10 10 10 11
8 8 8 8 8 8 8 8 9 9 9 9 9 9 9 9 9 9 9 9 9 9 9 9 9 9 9 9 9 9 9 9 9 9 9 10 10 10 10 10 10 10 10
7 7 7 7 7 7 8 8 8 8 8 8 8 8 8 8 8 8 8 8 8 8 8 8 8 8 8 8 9 9 9 9 9 9 9 9 9 10 10 10 9 9 10
6 6 6 7 7 7 7 7 7 7 7 7 7 7 7 7 7 7 7 7 8 8 8 8 8 8 8 8 8 8 8 8 8 8 8 9 9 9 9 9 9 9 9
5 6 6 6 6 6 6 6 7 7 7 7 7 7 6 7 7 7 7 7 7 7 7 7 7 7 7 7 7 7 7 8 8 8 8 8 8 9 9 9 9 9 9
5 5 5 5 5 5 6 6 6 6 6 6 6 6 6 6 6 6 6 6 6 6 7 7 7 7 7 7 7 7 7 7 7 7 7 8 8 8 8 8 8 9 9
4 4 4 4 5 5 5 5 5 5 5 5 5 5 5 5 5 5 5 6 6 6 6 6 6 6 6 6 6 6 6 6 7 7 7 7 7 7 7 8 8 8 8
3 3 3 4 4 4 4 4 4 4 4 4 4 4 4 5 5 5 5 5 5 5 5 5 5 5 6 5 6 6 6 6 6 6 6 6 6 6 7 7 7 8 8
2 3 3 3 3 3 3 3 3 4 4 4 4 4 4 4 4 4 4 4 4 4 4 5 5 5 5 5 5 5 5 5 5 5 6 6 6 6 6 6 7 7 7
2 2 2 2 2 2 2 2 2 3 3 3 3 3 3 3 3 3 3 4 4 4 4 4 4 4 4 4 4 4 4 4 4 5 5 5 5 6 6 6 6 6 6
1 1 1 1 1 1 1 2 2 2 2 2 2 2 2 2 3 3 3 3 3 3 3 3 3 3 3 3 3 3 4 4 3 4 4 4 5 5 5 5 5 5 5
-0 -0 0 0 1 1 1 1 1 1 1 1 2 2 2 2 2 2 2 2 2 2 2 3 3 3 3 3 3 3 3 3 3 3 3 4 4 4 4 5 5 5 5
-1 -1 -1 -1 -0 -0 -0 0 0 0 1 1 1 1 1 1 1 1 1 1 1 1 2 2 2 2 2 2 2 2 2 2 2 2 2 2 3 4 4 4 4 4 5
Wind_Speed
1 3 6 8 9 9 10 10 11 11 11 11 12 12 11 12 12 12 12 12 12 12 12 12 13 13 14 14 15 15 15 15 15 15 14 14 14 15 15 14 14 13 15
3 5 7 8 9 9 10 10 10 10 10 11 11 11 11 11 11 11 11 11 12 11 11 12 12 13 13 13 13 14 14 14 14 14 14 13 13 13 14 13 13 12 14
5 5 7 9 9 9 10 11 11 10 10 10 10 10 10 10 11 11 11 11 11 11 11 11 11 12 12 12 12 12 13 13 13 12 12 10 11 12 12 12 13 13 14
6 6 6 9 9 10 10 11 11 10 10 10 10 10 10 10 11 11 11 10 11 11 11 11 11 11 11 12 11 11 11 11 11 10 10 9 8 10 11 11 12 12 13
7 7 7 9 9 10 10 11 10 10 10 10 10 11 11 11 11 10 10 10 10 11 10 10 10 10 10 11 11 10 10 10 10 9 9 8 7 9 10 10 11 11 11
7 8 9 10 9 10 11 10 10 10 10 10 10 11 11 11 11 10 10 10 10 10 9 9 9 10 10 10 10 10 10 10 10 9 8 7 7 8 9 10 10 10 10
7 8 9 10 11 10 9 9 9 10 10 10 10 10 10 10 11 10 10 9 9 9 8 8 8 9 9 9 9 9 9 8 9 8 7 7 7 8 8 9 9 10 10
7 8 8 9 10 10 10 8 9 9 9 10 10 10 10 10 10 10 10 9 8 8 8 7 7 8 8 8 9 9 9 8 7 7 6 6 6 7 7 8 8 9 9
8 8 7 7 7 8 8 8 8 9 9 9 9 10 10 10 10 10 10 9 9 8 7 7 7 7 8 8 9 9 9 8 8 6 5 5 6 6 7 7 8 8 8
7 7 6 6 6 6 6 7 7 8 9 9 9 10 10 9 9 9 9 9 9 8 8 7 7 7 7 8 8 8 9 8 7 6 4 4 5 6 6 7 8 8 7
5 5 5 5 5 5 5 6 7 7 9 9 8 9 8 8 8 8 8 8 8 8 8 8 7 8 8 7 7 7 8 7 6 5 4 4 5 6 6 6 7 7 7
3 3 3 4 4 4 4 5 6 6 7 8 8 8 7 7 7 7 8 8 8 8 8 8 8 8 7 7 7 7 6 6 5 4 3 4 4 5 5 6 6 6 6
2 2 3 3 4 4 4 4 5 5 6 7 7 7 7 7 7 7 7 8 8 8 8 8 8 7 6 6 5 5 5 5 4 3 3 4 3 4 4 5 5 5 5
3 2 2 3 4 4 4 4 4 4 5 5 6 6 6 5 5 5 5 6 6 6 6 6 6 6 6 6 5 4 4 3 3 2 2 3 2 2 3 4 4 5 4
3 2 2 3 3 3 4 4 4 3 4 5 5 5 5 4 3 4 4 5 5 5 5 4 5 5 5 5 4 4 3 3 2 1 1 2 2 1 2 4 4 4 4
2 2 2 2 3 4 3 3 3 3 4 5 5 4 4 4 3 3 3 3 3 4 3 3 3 3 3 3 3 3 3 2 1 1 1 0 1 1 1 2 3 3 3
2 2 2 2 3 3 3 2 2 2 3 3 3 4 4 4 3 3 2 2 2 3 3 3 3 3 2 3 3 3 2 2 1 1 1 0 0 1 1 2 3 3 3
3 3 2 3 3 3 3 2 2 2 3 2 2 3 3 4 3 3 2 1 2 3 3 2 2 2 2 2 2 2 2 1 1 1 0 0 0 1 2 1 2 3 3
3 3 3 3 3 2 3 3 3 3 3 2 2 2 3 3 3 3 2 1 2 2 2 1 2 1 1 2 2 2 2 1 1 0 0 0 1 1 1 1 1 2 3
4 4 4 4 3 3 3 2 3 3 3 4 3 3 2 2 2 2 1 1 2 1 1 1 1 1 0 1 2 2 2 2 1 1 1 0 0 1 1 1 1 2 2
5 5 5 5 4 3 2 1 1 1 1 2 3 3 3 3 2 2 1 1 1 1 0 1 1 1 1 1 1 2 3 2 1 1 1 0 1 1 1 1 1 1 2
4 5 4 4 4 3 2 1 1 1 1 1 3 4 4 3 3 1 1 0 0 1 1 1 1 1 1 1 1 1 1 2 2 2 2 1 1 2 2 2 1 1 2
4 4 4 4 4 4 4 2 2 2 2 2 2 3 5 4 3 2 1 0 0 1 2 2 1 1 1 1 0 1 1 2 2 2 2 1 1 1 1 2 2 2 2
4 4 4 4 5 5 4 3 2 2 2 2 2 2 4 5 5 4 3 1 1 1 2 2 2 1 2 2 1 1 1 1 1 2 2 2 2 2 2 2 2 2 1
4 4 5 5 5 5 4 3 2 2 2 3 2 2 2 3 4 5 4 3 1 1 2 2 2 2 2 2 2 1 1 1 0 2 3 2 2 2 2 3 2 2 2
4 5 5 5 5 5 5 4 3 3 3 3 3 2 2 2 3 4 5 4 3 2 2 2 3 3 3 2 2 2 1 1 1 1 2 3 3 3 3 2 2 2 3
Wind_Direction
174 162 134 121 112 104 99 94 91 89 85 84 83 81 80 78 78 77 77 78 78 77 77 76 77 78 77 75 75 74 74 74 73 71 71 78 81 81 79 77 78 81 84
144 143 136 127 116 108 103 98 94 91 85 84 84 82 79 79 79 77 77 78 77 77 79 79 78 78 77 76 77 76 75 74 73 70 68 73 80 81 81 79 78 83 84
111 122 131 128 118 112 105 100 96 93 88 86 86 83 80 78 77 75 77 78 76 75 76 79 78 79 78 77 78 78 77 76 72 67 65 68 80 85 85 83 82 83 85
108 109 119 124 119 113 108 102 98 95 91 88 86 83 81 77 75 73 73 77 76 75 74 76 76 78 78 79 78 79 77 74 69 64 59 60 76 87 87 85 85 84 86
87 92 104 116 118 113 109 104 100 96 93 90 87 84 81 77 75 74 72 73 76 75 75 76 76 75 76 78 77 74 73 72 69 63 57 58 74 87 88 87 87 86 87
83 86 89 95 109 112 108 105 101 97 95 92 89 84 81 78 75 73 73 73 73 75 75 76 77 73 72 73 72 72 72 71 68 64 58 64 80 91 92 92 90 89 90
88 85 89 86 88 94 102 106 103 99 95 92 88 84 81 79 76 72 71 74 74 77 78 78 79 75 71 67 67 70 71 70 69 65 60 68 86 93 95 96 95 93 92
94 83 84 84 84 84 84 91 96 96 93 91 86 84 81 79 76 73 68 69 72 75 77 81 80 74 69 67 66 66 67 69 69 63 62 74 87 95 99 102 102 97 95
87 82 74 74 78 82 84 83 88 93 89 87 83 82 83 79 77 74 68 66 68 70 73 76 75 71 67 69 67 64 63 66 66 63 63 79 93 93 100 107 105 102 98
79 75 70 70 70 73 80 81 81 91 92 88 82 80 81 79 78 76 70 68 66 67 69 71 71 69 67 69 65 62 59 58 59 59 62 92 104 100 105 110 108 105 102
74 64 63 63 61 64 76 78 76 84 86 83 80 82 79 74 73 75 74 71 66 64 63 60 59 63 62 63 60 59 56 53 53 54 63 106 112 109 113 116 114 110 106
89 69 60 60 54 58 71 72 74 75 80 77 77 77 72 71 73 75 72 66 62 62 59 55 53 54 55 52 51 54 55 50 48 45 56 96 114 115 116 122 122 125 125
100 75 51 56 59 62 61 70 68 69 73 77 75 75 76 72 68 67 65 60 57 56 53 50 46 43 48 51 50 50 55 55 47 41 45 73 101 119 128 131 133 136 135
88 59 44 42 57 63 69 69 68 67 69 65 66 74 82 73 62 56 57 58 56 53 49 46 45 39 41 45 51 49 55 58 52 43 41 56 70 130 144 147 143 144 141
84 57 47 47 56 59 64 65 62 59 71 74 70 69 82 81 71 60 52 54 50 53 52 43 40 38 35 35 39 44 48 53 57 58 45 39 47 87 155 163 157 152 153
80 61 35 63 53 53 51 56 63 59 76 80 71 62 74 85 86 74 56 46 36 44 51 51 40 36 26 30 35 35 36 50 57 56 58 50 30 24 162 173 170 171 172
78 60 41 55 47 51 43 42 58 61 79 74 64 62 66 78 90 87 70 42 24 37 49 49 41 40 36 29 22 19 24 50 66 44 57 59 320 314 301 220 187 185 190
51 49 37 41 41 37 31 31 57 59 66 61 63 64 63 66 77 82 64 30 32 52 49 42 53 38 31 20 359 348 353 19 50 49 77 18 313 292 294 287 202 190 193
51 52 34 33 38 27 25 28 47 54 48 38 49 65 70 74 77 75 67 39 47 53 44 36 42 38 35 14 346 337 347 347 340 330 95 311 314 309 284 275 246 205 202
45 46 38 26 21 24 28 32 34 33 26 26 26 36 45 61 71 70 54 55 66 67 43 46 57 25 40 3 348 348 336 330 352 355 280 306 340 306 304 315 287 241 236
37 35 31 25 13 22 15 7 6 325 335 2 9 15 20 29 45 65 38 34 55 112 98 56 61 49 17 17 32 358 342 339 355 346 339 22 19 353 4 359 348 248 245
28 22 24 16 5 6 2 331 309 301 285 340 2 5 5 15 19 25 52 93 78 148 131 106 69 58 347 7 79 48 339 328 330 343 349 7 0 10 4 348 341 288 266
22 12 6 6 4 359 2 9 11 17 6 4 353 348 353 358 359 349 343 40 345 179 187 194 174 158 216 268 284 157 177 232 291 305 320 346 354 356 337 335 336 322 295
7 6 7 11 10 5 10 20 26 6 324 294 293 308 343 356 353 346 346 347 339 235 205 212 197 210 196 226 276 299 258 191 217 282 299 321 329 321 309 310 311 305 305
13 12 6 9 11 7 7 6 359 342 319 312 316 327 332 346 348 348 346 346 326 282 244 223 213 212 217 224 227 262 311 331 271 224 260 286 301 292 297 290 285 285 297
18 14 9 9 7 3 3 0 352 336 328 327 324 324 318 316 330 338 338 335 318 295 265 241 223 218 222 230 229 222 222 225 231 235 240 251 267 276 289 285 281 287 293
Height
1538 1539 1540 1541 1541 1542 1542 1542 1543 1543 1543 1543 1543 1544 1544 1544 1544 1544 1544 1544 1544 1544 1544 1544 1544 1544 1544 1544 1545 1545 1545 1545 1545 1545 1545 1545 1545 1546 1546 1546 1546 1546 1546
1537 1539 1540 1541 1541 1542 1542 1542 1543 1543 1543 1544 1544 1544 1544 1544 1544 1544 1544 1545 1545 1545 1545 1545 1545 1545 1545 1545 1545 1546 1546 1546 1546 1546 1546 1547 1547 1547 1547 1547 1547 1547 1547
1537 1538 1539 1540 1541 1542 1542 1543 1543 1543 1543 1544 1544 1544 1545 1545 1545 1545 1545 1545 1545 1545 1545 1546 1546 1546 1546 1546 1546 1546 1547 1547 1547 1547 1547 1548 1548 1548 1548 1549 1549 1549 1549
1537 1538 1539 1540 1541 1542 1542 1543 1543 1543 1543 1544 1544 1545 1545 1545 1545 1545 1545 1545 1545 1545 1545 1546 1546 1546 1546 1547 1547 1547 1547 1547 1548 1548 1548 1548 1549 1549 1549 1550 1550 1550 1550
1537 1538 1539 1540 1541 1542 1542 1542 1543 1543 1544 1544 1544 1545 1545 1545 1545 1545 1545 1545 1545 1545 1546 1546 1546 1546 1547 1547 1547 1547 1548 1548 1548 1548 1548 1549 1549 1550 1550 1550 1551 1551 1551
1536 1537 1539 1539 1541 1541 1542 1542 1543 1543 1543 1544 1544 1544 1545 1545 1545 1545 1545 1545 1545 1545 1545 1546 1546 1547 1547 1547 1547 1548 1548 1548 1548 1548 1549 1549 1549 1550 1550 1551 1551 1551 1552
1536 1537 1538 1539 1540 1541 1541 1542 1542 1543 1543 1543 1544 1544 1544 1544 1544 1544 1545 1545 1545 1545 1545 1546 1546 1546 1547 1547 1547 1548 1548 1548 1548 1548 1549 1549 1550 1550 1550 1551 1551 1552 1552
1536 1537 1538 1539 1540 1540 1541 1541 1542 1542 1543 1543 1543 1544 1544 1544 1544 1544 1544 1544 1544 1545 1545 1545 1546 1546 1546 1547 1547 1547 1547 1548 1548 1548 1549 1549 1550 1550 1550 1551 1551 1552 1552
1535 1536 1537 1538 1539 1540 1540 1541 1541 1542 1542 1542 1543 1543 1543 1543 1543 1543 1543 1543 1543 1544 1544 1544 1545 1545 1546 1546 1547 1547 1547 1547 1548 1548 1548 1549 1549 1550 1550 1551 1551 1552 1553
1535 1536 1537 1537 1538 1539 1540 1540 1540 1541 1541 1542 1542 1542 1542 1542 1542 1542 1542 1542 1543 1543 1543 1544 1544 1544 1545 1545 1546 1546 1547 1547 1547 1548 1548 1548 1549 1549 1550 1550 1551 1551 1552
1534 1535 1536 1536 1537 1538 1538 1539 1540 1540 1540 1540 1541 1541 1541 1541 1541 1541 1541 1542 1542 1542 1542 1542 1542 1543 1544 1544 1545 1545 1546 1546 1546 1547 1547 1548 1549 1549 1549 1550 1550 1551 1552
1533 1534 1535 1535 1536 1537 1537 1538 1538 1539 1539 1539 1539 1540 1540 1540 1540 1540 1540 1540 1541 1541 1541 1541 1541 1542 1542 1543 1543 1544 1544 1545 1545 1546 1546 1547 1548 1548 1549 1549 1550 1550 1551
1532 1533 1534 1534 1535 1536 1536 1536 1537 1537 1537 1537 1538 1538 1538 1538 1538 1539 1538 1539 1539 1540 1540 1540 1540 1540 1541 1541 1542 1542 1543 1543 1544 1545 1545 1546 1546 1547 1548 1548 1549 1550 1550
1531 1532 1533 1533 1534 1534 1535 1535 1535 1536 1536 1535 1536 1536 1536 1536 1537 1537 1537 1537 1537 1538 1538 1538 1538 1539 1539 1540 1540 1541 1541 1542 1542 1543 1544 1544 1545 1546 1547 1547 1548 1549 1549
1529 1530 1531 1532 1532 1533 1533 1533 1533 1534 1534 1534 1534 1534 1534 1535 1535 1535 1535 1535 1536 1536 1536 1536 1537 1537 1537 1538 1538 1539 1539 1540 1540 1541 1542 1543 1543 1544 1545 1545 1546 1547 1548
1528 1528 1529 1530 1530 1531 1531 1531 1532 1532 1532 1532 1532 1532 1532 1532 1533 1533 1533 1533 1533 1533 1534 1534 1534 1535 1535 1536 1536 1537 1537 1537 1538 1539 1540 1541 1542 1542 1543 1543 1544 1545 1546
1526 1527 1528 1528 1529 1529 1529 1529 1529 1529 1530 1530 1530 1530 1530 1530 1530 1531 1531 1531 1531 1531 1531 1531 1532 1532 1533 1533 1534 1534 1535 1535 1536 1537 1537 1538 1539 1540 1541 1541 1542 1543 1544
1525 1526 1526 1526 1526 1527 1527 1527 1527 1527 1527 1527 1527 1528 1528 1528 1528 1528 1528 1528 1528 1529 1529 1529 1529 1529 1530 1531 1531 1531 1532 1532 1533 1534 1535 1535 1536 1537 1538 1539 1539 1540 1541
1523 1524 1524 1524 1524 1524 1524 1524 1525 1525 1525 1525 1525 1525 1525 1525 1525 1526 1526 1526 1526 1526 1526 1526 1526 1527 1527 1527 1528 1528 1529 1529 1530 1531 1532 1532 1533 1535 1535 1536 1537 1537 1538
1522 1522 1522 1522 1522 1522 1522 1522 1522 1522 1522 1522 1522 1521 1522 1522 1522 1523 1523 1523 1523 1523 1523 1523 1523 1524 1524 1524 1525 1525 1526 1526 1526 1527 1528 1529 1530 1531 1532 1533 1534 1534 1535
1520 1520 1520 1520 1519 1519 1519 1519 1518 1518 1519 1519 1519 1519 1519 1519 1519 1520 1520 1520 1520 1520 1520 1520 1520 1521 1521 1521 1522 1522 1522 1523 1523 1524 1525 1526 1527 1528 1529 1530 1530 1531 1532
1518 1518 1518 1517 1517 1517 1517 1516 1516 1515 1515 1516 1516 1516 1516 1515 1516 1516 1516 1516 1516 1517 1517 1517 1517 1517 1518 1518 1519 1519 1519 1521 1520 1520 1521 1522 1523 1524 1525 1526 1527 1528 1529
1517 1516 1516 1515 1514 1514 1514 1514 1513 1512 1512 1513 1512 1512 1512 1512 1512 1513 1513 1513 1513 1513 1514 1514 1514 1515 1515 1516 1516 1517 1517 1516 1517 1517 1517 1518 1519 1521 1522 1523 1523 1524 1525
1516 1515 1514 1513 1513 1512 1511 1510 1510 1509 1509 1509 1509 1509 1509 1509 1509 1510 1510 1510 1510 1510 1510 1510 1511 1511 1512 1512 1513 1513 1514 1514 1515 1514 1514 1515 1516 1517 1518 1519 1520 1520 1522
1514 1513 1512 1511 1510 1510 1509 1508 1507 1506 1506 1506 1506 1505 1505 1505 1506 1506 1506 1506 1506 1506 1507 1507 1507 1508 1508 1508 1509 1509 1510 1510 1511 1511 1510 1511 1512 1513 1514 1515 1516 1517 1518
1513 1511 1510 1509 1508 1507 1506 1505 1504 1504 1503 1502 1502 1502 1501 1501 1502 1502 1502 1502 1502 1502 1503 1503 1503 1504 1504 1504 1505 1505 1506 1506 1507 1507 1507 1507 1508 1509 1510 1511 1512 1513 1514